Marrakech, Morocco

4:52 AM WET on March 25, 2017 (GMT +0000)
Marrakech

Weather History for 60230 - September, 2013

Change the Weather History Date:

Saturday, September 28, 2013

  Actual Average Record
Temperature  
Mean Temperature 75 °F -  
Max Temperature 85 °F 81 °F - ()
Min Temperature 65 °F 58 °F - ()
Cooling Degree Days 10    
Growing Degree Days 25 (Base 50)    
Moisture  
Dew Point 60 °F    
Average Humidity 59    
Maximum Humidity 88    
Minimum Humidity 33    
Precipitation  
Precipitation 0.00 in 0.03 in - ()
Sea Level Pressure  
Sea Level Pressure 30.04 in    
Wind  
Wind Speed 4 mph ()    
Max Wind Speed 12 mph    
Max Gust Speed 21 mph    
Visibility 6.1 miles    
Events      
T = Trace of Precipitation, MM = Missing Value Source: Averaged Metar Reports

Daily Weather History Graph

Daily Weather History Graph

Search for Another Location

Airport or City:

Trip Planner

Search our weather history database for the weather conditions in past years. The results will help you decide how hot, cold, wet, or windy it might be!

Date:

Astronomy

Sep. 28, 2013 Rise Set
Actual Time 7:24 AM WEST 7:20 PM WEST
Civil Twilight 6:59 AM WEST 7:45 PM WEST
Nautical Twilight 6:31 AM WEST 8:13 PM WEST
Astronomical Twilight 6:03 AM WEST 8:41 PM WEST
Moon 1:18 AM WEST (9/28) 3:12 PM WEST (9/28)
Length of Visible Light 12h 45m
Length of Day
11h 56m
Last Quarter, 38% of the Moon is Illuminated
Sep 28
Last Quarter
Oct 5
New
Oct 12
First Quarter
Oct 19
Full
Oct 27
Last Quarter

Hourly Weather History & Observations

Time (WEST) Temp. Heat Index Dew Point Humidity Pressure Visibility Wind Dir Wind Speed Gust Speed Precip Events Conditions
12:00 AM 73.4 °F - 59.0 °F 61% 30.06 in - NNW 5.8 mph - N/A   Clear
12:30 AM 71.6 °F - 59.0 °F 64% 30.04 in - NW 4.6 mph - N/A   Clear
1:00 AM 72 °F - 58 °F 53% 29.99 in 6 mi NW 3.5 mph - -  
1:00 AM 71.6 °F - 59.0 °F 64% 30.04 in - NW 3.5 mph - N/A   Clear
3:00 AM 69.8 °F - 59.0 °F 68% 30.04 in - North 3.5 mph - N/A   Clear
3:30 AM 68.0 °F - 59.0 °F 73% 30.04 in - West 3.5 mph - N/A   Clear
4:00 AM 67 °F - 58 °F 65% 29.99 in 6 mi WSW 2.3 mph - -   Clear
4:00 AM 66.2 °F - 57.2 °F 73% 30.04 in - WSW 3.5 mph - N/A   Clear
4:30 AM 68.0 °F - 57.2 °F 68% 30.01 in - WSW 3.5 mph - N/A   Clear
5:00 AM 66.2 °F - 57.2 °F 73% 30.01 in 6.2 mi WSW 2.3 mph - N/A   Unknown
5:30 AM 66.2 °F - 59.0 °F 78% 30.01 in - SW 1.2 mph - N/A   Clear
6:00 AM 66.2 °F - 57.2 °F 73% 30.01 in - Calm Calm - N/A   Clear
6:30 AM 66.2 °F - 59.0 °F 78% 30.01 in - Calm Calm - N/A   Clear
7:00 AM 66 °F - 58 °F 70% 29.98 in 6 mi SE 3.5 mph - -   Clear
7:00 AM 66.2 °F - 59.0 °F 78% 30.01 in - SE 2.3 mph - N/A   Clear
7:30 AM 68.0 °F - 59.0 °F 73% 30.01 in - SE 3.5 mph - N/A   Clear
8:00 AM 66.2 °F - 59.0 °F 78% 30.04 in - Calm Calm - N/A   Clear
8:30 AM 68.0 °F - 59.0 °F 73% 30.04 in - Calm Calm - N/A   Clear
9:00 AM 71.6 °F - 57.2 °F 60% 30.04 in - SE 1.2 mph - N/A   Clear
9:30 AM 73.4 °F - 59.0 °F 61% 30.04 in - Variable 1.2 mph - N/A   Clear
10:00 AM 75 °F - 57 °F 44% 29.99 in 6 mi NNE 3.5 mph - -   Clear
10:00 AM 75.2 °F - 57.2 °F 53% 30.06 in 5.6 mi North 3.5 mph - N/A   Unknown
10:30 AM 75.2 °F - 57.2 °F 53% 30.06 in - Variable 3.5 mph - N/A   Clear
11:00 AM 77.0 °F - 57.2 °F 50% 30.06 in - NNE 4.6 mph - N/A   Clear
11:30 AM 77.0 °F - 57.2 °F 50% 30.06 in - ENE 4.6 mph - N/A   Clear
12:00 PM 78.8 °F - 59.0 °F 51% 30.06 in - Variable 3.5 mph - N/A   Clear
12:30 PM 78.8 °F - 59.0 °F 51% 30.06 in - NNW 3.5 mph - N/A   Clear
1:00 PM 81 °F - 58 °F 34% 29.97 in 6 mi NNW 3.5 mph - -   Scattered Clouds
1:00 PM 80.6 °F 81.1 °F 59.0 °F 48% 30.06 in 6.2 mi NNW 3.5 mph - N/A   Mostly Cloudy
1:30 PM 82.4 °F 82.0 °F 57.2 °F 42% 30.04 in 6.2 mi WNW 5.8 mph - N/A   Mostly Cloudy
2:00 PM 82.4 °F 82.0 °F 57.2 °F 42% 30.04 in 6.2 mi Variable 2.3 mph - N/A   Mostly Cloudy
2:30 PM 82.4 °F 82.0 °F 57.2 °F 42% 30.04 in 6.2 mi NNW 6.9 mph - N/A   Mostly Cloudy
3:00 PM 82.4 °F 82.0 °F 57.2 °F 42% 30.04 in 6.2 mi NW 9.2 mph - N/A   Scattered Clouds
3:30 PM 84.2 °F 83.8 °F 59.0 °F 42% 30.04 in 6.2 mi WNW 10.4 mph - N/A   Scattered Clouds
4:00 PM 83 °F - 59 °F 33% 29.94 in 6 mi West 8.1 mph - -   Partly Cloudy
4:00 PM 84.2 °F 83.8 °F 59.0 °F 42% 30.04 in 6.2 mi West 8.1 mph - N/A   Scattered Clouds
4:30 PM 84.2 °F 83.8 °F 59.0 °F 42% 30.04 in 6.2 mi WNW 8.1 mph - N/A   Scattered Clouds
5:00 PM 84.2 °F 83.8 °F 59.0 °F 42% 30.04 in 6.2 mi West 9.2 mph 20.7 mph N/A   Scattered Clouds
5:30 PM 86.0 °F 85.4 °F 59.0 °F 40% 30.01 in 6.2 mi WSW 6.9 mph - N/A   Scattered Clouds
6:00 PM 86.0 °F 86.1 °F 60.8 °F 43% 30.04 in 6.2 mi SW 5.8 mph - N/A   Scattered Clouds
6:30 PM 84.2 °F 84.4 °F 60.8 °F 45% 30.04 in 6.2 mi WNW 11.5 mph - N/A   Scattered Clouds
7:00 PM 83 °F - 62 °F 39% 29.95 in 6 mi WNW 10.4 mph - -   Scattered Clouds
7:00 PM 82.4 °F 83.4 °F 62.6 °F 51% 30.04 in 6.2 mi WNW 11.5 mph - N/A   Scattered Clouds
7:30 PM 80.6 °F 81.8 °F 62.6 °F 54% 30.04 in 6.2 mi NW 11.5 mph - N/A   Scattered Clouds
8:00 PM 78.8 °F - 64.4 °F 61% 30.06 in 6.2 mi WNW 10.4 mph - N/A   Scattered Clouds
8:30 PM 77.0 °F - 64.4 °F 65% 30.06 in 6.2 mi WNW 11.5 mph - N/A   Scattered Clouds
9:00 PM 75.2 °F - 64.4 °F 69% 30.09 in 6.2 mi WNW 10.4 mph - N/A   Scattered Clouds
9:30 PM 75.2 °F - 66.2 °F 73% 30.09 in 6.2 mi WNW 8.1 mph - N/A   Scattered Clouds
10:00 PM 73 °F - 66 °F 73% 30.05 in 6 mi WNW 10.4 mph - -   Scattered Clouds
10:00 PM 73.4 °F - 66.2 °F 78% 30.12 in 6.2 mi West 11.5 mph - N/A   Partly Cloudy
10:30 PM 73.4 °F - 68.0 °F 83% 30.09 in 6.2 mi NW 9.2 mph - N/A   Partly Cloudy
11:00 PM 71.6 °F - 68.0 °F 88% 30.09 in 6.2 mi West 6.9 mph - N/A   Mostly Cloudy
11:45 PM 71.6 °F - 66.2 °F 83% 30.09 in 6.2 mi NW 4.6 mph - N/A   Mostly Cloudy